COSMOS 970 DEB, 64989

Orbit data source: Space-Track

COSMOS 970 DEB, 64989 is space debris in LEO originally from a launch on Wed, 21 Dec 1977 UTC launched from the Tyuratam Missile And Space Complex (TTMTR). Debris objects in space refer to the collection of defunct objects orbiting the Earth. Examples of debris include non-operational satellites, rocket bodies, and fragments generated from explosions, collisions, or faulty payload assembly.

Loading next visibility...
Identifier
64989, 1977-121DA
Orbit
LEO
Country
Flag of CISCIS
Related business
Manufacturer
Unknown
Mission
Spacecraft
Bus & Motor
Unknown
Mass
Unknown
Launch date (UTC)
1977-12-21 (48 years ago)
Launch vehicle
Unknown
Launch site
Tyuratam Missile And Space Complex (TTMTR)
Object type
Payload
Rocket body
Debris
Shape & HBR
Unknown shape, 1.1 m
Radar Cross Section
Small (<0.1 m²)

Expand to show TLE details & history
Last TLE update: 1 week ago

TLE from 1 week ago
0 COSMOS 970 DEB
1 64989U 77121DA  26163.77105829  .00000407  00000-0  49039-3 0  9990
2 64989  65.5956 342.1536 0103841 283.6183  93.0906 13.75216768584556
Epoch: 2026-06-12T18:30Z
TLE epoch observation values (Epoch: 2026-06-12T18:30:19.436Z)
Latitude
16.24946°
Longitude
171.0363°
Altitude
987.13 km
Speed
7.357 km/s
True Right ascension
23h 18m 51s
True Declination
16° 09' 37"
Sunlit
Object was in daylight at epoch
Visualization orbit readout
Latitude
Unknown
Longitude
Unknown
Altitude
Unknown
Speed
Unknown
Apparent Right ascension
Unknown
Apparent Declination
Unknown
Sunlit
N/A
Visualization observer readout
Local Sidereal Time
07:13:15
Azimuth
Unknown
Elevation
Unknown
Doppler factor
Unknown
Orbital elements
Apogee altitude
1,055.848 km
Perigee altitude
903.044 km
Semi-major axis
7,357.583 km
Eccentricity
0.01038
Inclination
65.5956°
RAAN
342.1536°
Arg. of periapsis
283.6183°
True anomaly
94.27788°
Mean anomaly
93.0906°
Eccentric anomaly
93.68434°
Mean motion
3.43907 °/min
Orbital period
104.68 mins
BSTAR
0.00049039
Loading maneuver chart data...
Computing Atmospheric mass density...
Loading historical data...
Loading historical data...
Loading historical data...
Loading historical data...
Loading historical data...
Loading historical data...
Loading historical data...

Documentation

Showing up to 5 results
|